Location: Mahannah Oil Field
(37.4664°N, 96.6003°W)
Time: 10:30:52
(UTC+00:00)

deb Explorer IX - Pass Details

Date: 03 February 2021
Orbit: 538 x 1101 km, 38.8° (Epoch: 07 March)

Event Time Altitude Azimuth Distance (km) Brightness Sun altitude
Rises 00:51:11 0° 285° (WNW) 3,834 ? -12.1°
Reaches altitude 10° 00:54:04 10° 282° (WNW) 2,823 ? -12.6°
Maximum altitude 01:00:45 57° 205° (SSW) 1,091 ? -13.9°
Drops below altitude 10° 01:06:32 10° 128° (SE) 2,451 ? -15.1°
Enters shadow 01:06:40 - 128° (SE) 2,495 ? -15.1°
